Weather in Konchezero

Russia / Republic of Karelia     62°07′40″N   34°00′28″E
temp.,
°C
wind,
m/s
gust,
m/s
humid.,
%
clouds,
%
prec.,
mm/h
press.,
hPa
HPBL,
m
6 may, thu
thu600:00−1e117825 0.0 100613
03:00−1e137693 0.0 100677
06:000e387198 0.0 1005329
09:00+3ese495999 0.0 1003752
12:00+3e51183100 0.1 1001715
15:00+3e51397100 3.7 998785
18:00+3e61596100 5.2 991905
21:00+5se61498100 10.9 987665
7 may, fri
fri700:00+1ssw61595100 0.0 989873
03:00+2ssw51495100 0.0 9911087
06:00+1ssw51188100 0.0 9931067
09:00+2ssw51189100 0.1 9951012
12:00+4ssw51081100 0.1 9981182
15:00+6sw5975100 0.3 10001307
18:00+4sw3880100 0.1 10031174
21:00+3s2695100 0.1 1005321
8 may, sat
sat800:00+3s2698100 0.1 1005338
03:00+3sse2397100 0.1 1006129
06:00+3ese1497100 0.0 1006163
09:00+5ese3586100 0.0 1005372
12:00+6e3583100 0.5 1003660
15:00+5nne3594100 2.3 1002908
18:00+5nne3596100 0.9 1001574
21:00+5n4798100 1.6 1000582
9 may, sun
sun900:00+4n51197100 0.4 999729
03:00+3nnw61397100 2.6 999943
06:00+3nnw71493100 1.9 10001057
09:00+5nw61470100 2.1 10031262
12:00+9wnw6115227 0.0 10062085
15:00+10w6104199 0.0 10092690
18:00+10wsw410505 0.1 10121983
21:00+7sw41263100 0.1 1014961
10 may, mon
mon1000:00+5sw5147498 0.0 1014806
03:00+4sw41279100 0.0 1016655
06:00+4sw31180100 0.0 1017471
09:00+8sw376499 0.0 1018733
12:00+8ssw4875100 0.1 10191210
15:00+7ssw3888100 0.1 1019767
18:00+7ssw31091100 0.0 1019634
21:00+7ssw2896100 0.3 1020326